Lid_Strength_Index
5 4 4 4 4 2 2 3 3 2 1 1 2 1 1 1 1 1 1 1 1 2 2 3 4 4 5
5 5 5 5 4 5 4 2 3 2 2 1 1 1 1 1 1 2 2 2 2 2 3 4 4 5 5
5 4 5 5 6 6 5 5 4 4 2 2 2 2 2 2 2 2 3 3 3 3 4 4 5 5 6
5 5 5 6 6 7 7 6 6 5 5 4 4 3 3 2 3 4 4 4 3 4 5 6 6 6 6
5 6 5 8 7 7 7 7 7 7 7 7 7 7 5 3 4 5 4 4 4 5 5 6 7 7 6
5 6 5 6 7 7 7 8 9 7 7 8 7 8 7 6 4 4 4 5 5 5 6 6 6 6 7
5 5 5 5 6 7 7 7 8 8 8 9 9 10 8 7 5 5 5 5 6 6 6 6 6 6 6
4 4 4 5 5 5 6 7 9 9 8 11 10 10 10 10 7 5 5 6 6 6 6 6 6 6 6
5 5 5 5 5 6 8 9 10 10 10 10 12 12 12 11 11 10 7 6 6 5 5 5 6 6 7
6 6 6 6 6 6 8 10 11 11 11 11 13 13 13 14 13 13 12 8 5 5 5 5 6 10 11
7 7 8 7 8 8 8 9 11 11 11 11 14 14 14 14 14 13 13 12 10 8 6 6 6 10 12
10 11 11 11 12 12 12 12 12 11 10 12 14 13 13 15 14 14 13 13 12 11 12 9 7 8 8
13 14 14 14 14 15 14 14 15 14 13 13 13 13 13 13 14 15 14 13 13 13 13 13 13 14 15
14 15 15 15 15 14 14 14 14 15 15 13 13 12 13 13 13 14 13 14 14 14 14 15 14 15 15
14 15 15 14 15 14 14 14 14 15 16 15 14 14 13 13 13 13 14 14 15 15 15 16 15 15 15
14 14 14 14 15 15 14 14 14 15 16 16 16 15 15 15 13 14 14 17 17 16 16 17 16 15 14
14 14 14 14 14 15 15 14 15 15 15 15 15 15 16 16 15 13 19 18 17 19 18 19 17 15 14